Miscellaneous Local Product
Issued by NWS Hastings, NE

Home | Current Version | Previous Version | Text Only | Print | Product List | Glossary Off
Versions: 1 2 3 4 5 6 7 8 9 10 11 12 13 14 15 16 17 18 19 20 21 22 23 24 25 26 27 28 29 30 31 32 33 34 35 36 37 38 39 40 41 42 43 44 45 46 47 48 49 50

891
AXUS43 KGID 300002
MISGRI

GID CWA HOURLY WEATHER ROUNDUP
NATIONAL WEATHER SERVICE HASTINGS NE
700 PM CDT THU SEP 29 2016

NOTE: "FAIR" INDICATES FEW OR NO CLOUDS BELOW 12,000 FEET WITH NO
SIGNIFICANT WEATHER AND/OR OBSTRUCTIONS TO VISIBILITY.

...SOUTH CENTRAL NEBRASKA...

CITY           SKY/WX    TMP DP  RH WIND       PRES   REMARKS
GRAND ISLAND   CLEAR     64  46  52 SE5       30.34R
HASTINGS       CLEAR     65  44  46 SE7       30.34S
KEARNEY        CLEAR     66  41  39 SE6       30.32S
ORD            CLEAR     65  41  41 SE7       30.32S
YORK           CLEAR     63  46  55 E5        30.33S
AURORA         CLEAR     64  47  54 E3        30.34R
LEXINGTON      CLEAR     66  40  38 SE8       30.32S
HOLDREGE       CLEAR     65  42  43 SE6       30.32S
HEBRON         CLEAR     65  47  51 CALM      30.32S

...NEBRASKA PANHANDLE...

CITY           SKY/WX    TMP DP  RH WIND       PRES   REMARKS
CHADRON        CLEAR     77  42  28 S18G25    30.18S
ALLIANCE       CLEAR     71  42  35 SE15      30.25S
SCOTTSBLUFF    CLEAR     75  45  34 SE17      30.20S
SIDNEY         CLEAR     73  43  33 SE17      30.26S

...WESTERN AND NORTH CENTRAL NEBRASKA...

CITY           SKY/WX    TMP DP  RH WIND       PRES   REMARKS
VALENTINE      CLEAR     69  38  32 SE14      30.27F
AINSWORTH      CLEAR     65  43  44 SE9       30.30S
ONEILL         CLEAR     65  42  43 SE7       30.33S
BROKEN BOW     CLEAR     64  43  46 SE10      30.31F
IMPERIAL       CLEAR     69  40  34 SE13      30.28S
NORTH PLATTE   CLEAR     67  40  37 SE9       30.29S
MCCOOK         CLEAR     66  42  41 SE9       30.30S

...EASTERN NEBRASKA...

CITY           SKY/WX    TMP DP  RH WIND       PRES   REMARKS
NORFOLK        CLEAR     64  45  49 E3        30.33F
SO SIOUX CITY  CLEAR     66  49  54 E6        30.33F
TEKAMAH        CLEAR     67  48  50 NE6       30.32F
COLUMBUS       CLEAR     64  43  45 SE5       30.34S
ALBION         CLEAR     65  46  49 SE5       30.34R
OMAHA EPPLEY   CLEAR     68  48  48 NE6       30.32S
OFFUTT AFB     CLEAR     67  49  52 NE3       30.30F
MILLARD        CLEAR     68  48  49 CALM      30.32S
LINCOLN        CLEAR     65  48  54 NE9       30.33F
NEBRASKA CITY  CLEAR     65  40  39 CALM      30.31S
BEATRICE       CLEAR     66  48  51 NE5       30.31F
FALLS CITY     CLEAR     66  47  50 NE5       30.29F

...NORTHERN KANSAS...

CITY           SKY/WX    TMP DP  RH WIND       PRES   REMARKS
GOODLAND       CLEAR     70  41  34 SE14      30.28F
HILL CITY      CLEAR     66  46  48 SE6       30.32S
NORTON         CLEAR     64  37  36 E6        30.31F
PHILLIPSBURG   CLEAR     66  45  45 E6        30.32F
SMITH CENTER   DRZL/FOG  63  48  59 CALM      30.33S VSB 1/4
HAYS           CLEAR     66  41  39 E8        30.32S
RUSSELL        CLEAR     65  48  54 NE5       30.31S
CONCORDIA      CLEAR     65  49  56 E3        30.32S
SALINA         CLEAR     68  47  46 NE6       30.32R
TOPEKA         CLEAR     66  51  58 CALM      30.29S



USA.gov is the U.S. government's official web portal to all federal, state and local government web resources and services.